Flag for Germany Weather past 2 weeks in Gummersbach, North Rhine-Westphalia, Germany

43 °F

Passing clouds.

Feels Like: 37 °F
Forecast: 38 / 48 °F
Wind: 10 mph from South

Location: Koeln / Bonn

Current Time: Nov 29, 2015 at 12:14:29 AM

Latest Report: Nov 28, 2015 at 10:50 PM

Visibility: N/A

Pressure: 29.92 "Hg

Humidity: 76%

Dew point: 36 °F

Location of GummersbachLocation

Historic Weather in Gummersbach — Graph


Gummersbach temperature yesterday

Maximum temperature yesterday: 45 °F (at 11:50 AM)
Minimum temperature yesterday: 36 °F (at 12:50 AM)
Average temperature yesterday: 41 °F

Past Weeks' High & Low Weather Summary

High61 °F (Nov 15, 11:50 AM)100% (Nov 14, 11:20 PM)30.33 "Hg (Nov 14, 11:20 PM)
Low30 °F (Nov 26, 11:20 PM)59% (Nov 18, 9:50 AM)29.39 "Hg (Nov 21, 1:50 PM)
Average45 °F86%29.92 "Hg
* Reported Nov 13 10:20 PM — Nov 28 10:20 PM, Gummersbach, Weather by CustomWeather, © 2015

Note: Actual official high and low records may vary slightly from our data, if they occured in-between our weather recording intervals... More about our weather records


Gummersbach weather history for previous 24 hours

Time TempWeatherWind HumidityBarometerVisibility
10:20 PM
Sat, Nov 28
43 °FPartly cloudy.13 mph76%29.95 "HgN/A
9:20 PM43 °FClear.13 mph76%29.95 "Hg10 mi
8:50 PM43 °FClear.12 mph76%29.98 "Hg10 mi
8:20 PM43 °FClear.10 mph71%29.98 "Hg10 mi
7:50 PM41 °FPartly cloudy.10 mph76%29.98 "HgN/A
7:20 PM41 °FClear.9 mph70%29.98 "Hg10 mi
6:50 PM41 °FClear.9 mph70%29.98 "Hg10 mi
6:20 PM41 °FPassing clouds.9 mph70%30.01 "HgN/A
5:50 PM39 °FClear.8 mph75%30.01 "Hg10 mi
5:20 PM39 °FClear.7 mph75%30.01 "Hg10 mi
4:50 PM41 °FClear.7 mph70%30.01 "Hg10 mi
4:20 PM43 °FScattered clouds.13 mph71%30.01 "HgN/A
3:50 PM43 °FScattered clouds.13 mph71%30.01 "HgN/A
3:20 PM45 °FScattered clouds.17 mph66%29.98 "HgN/A
2:50 PM45 °FPartly sunny.18 mph71%29.98 "HgN/A
2:20 PM45 °FPartly sunny.18 mph71%29.98 "HgN/A
1:50 PM43 °FPartly sunny.17 mph76%29.98 "HgN/A
1:20 PM43 °FPartly sunny.15 mph76%29.98 "HgN/A
12:50 PM43 °FPartly sunny.16 mph76%29.95 "HgN/A
12:20 PM43 °FPartly sunny.17 mph81%29.95 "HgN/A
11:50 AM45 °FScattered clouds.14 mph76%29.95 "HgN/A
11:20 AM43 °FScattered clouds.16 mph81%29.95 "HgN/A
10:50 AM43 °FScattered clouds.13 mph87%29.92 "HgN/A
10:20 AM43 °FPartly sunny.17 mph87%29.92 "HgN/A
9:50 AM43 °FBroken clouds.15 mph87%29.89 "HgN/A
9:20 AM43 °FBroken clouds.15 mph93%29.89 "HgN/A
8:50 AM43 °FLight rain. Partly sunny.16 mph93%29.86 "HgN/A
8:20 AM43 °FLight rain. Partly sunny.13 mph93%29.83 "HgN/A
7:50 AM43 °FPartly cloudy.16 mph93%29.83 "HgN/A
7:20 AM43 °FPassing clouds.18 mph93%29.77 "HgN/A
6:50 AM39 °FLight rain. Passing clouds.9 mph100%29.77 "HgN/A
5:50 AM37 °FRain. Overcast.8 mph100%29.74 "HgN/A
4:50 AM36 °FDrizzle. Overcast.10 mph100%29.74 "HgN/A
4:20 AM36 °FPassing clouds.8 mph100%29.74 "HgN/A
3:50 AM36 °FPassing clouds.9 mph100%29.74 "Hg4 mi
3:20 AM36 °FPartly cloudy.10 mph93%29.74 "HgN/A
2:50 AM36 °FPassing clouds.10 mph93%29.77 "HgN/A
2:20 AM36 °FPassing clouds.10 mph93%29.77 "HgN/A
1:50 AM36 °FPassing clouds.12 mph93%29.77 "HgN/A
1:20 AM36 °FDrizzle. Overcast.10 mph93%29.80 "HgN/A
12:50 AM36 °FLight rain. Passing clouds.9 mph87%29.83 "HgN/A
Weather by CustomWeather, © 2015

See weather overviewHow to use our weather pages